Location: Białogóra
(54.8155°N, 17.9567°E)
Time: 02:25:59
(UTC+01:00)

ISS - Visible Passes

Search period start: 23 January 2019 00:00
Search period end: 02 February 2019 00:00
Orbit: 404 x 411 km, 51.6° (Epoch: 23 January)

Date Brightness Start Highest point End Pass type
(mag) Time Alt. Az. Time Alt. Az. Time Alt. Az.
25 Jan -1.9 18:33:52 10° SSW 18:35:40 20° S 18:35:40 20° S visible
26 Jan -1.8 17:43:09 10° S 17:45:23 17° SSE 17:46:30 15° ESE visible
26 Jan -1.2 19:18:14 10° WSW 19:19:13 17° SW 19:19:13 17° SW visible
27 Jan -2.7 18:27:04 10° SW 18:30:00 33° SSE 18:30:00 33° SSE visible
28 Jan -2.3 17:36:00 10° SW 17:38:50 26° SSE 17:40:44 16° ESE visible
28 Jan -1.7 19:11:46 10° WSW 19:13:26 26° WSW 19:13:26 26° WSW visible
29 Jan -3.2 18:20:29 10° WSW 18:23:38 43° S 18:24:08 40° SE visible
29 Jan -0.3 19:56:44 10° W 19:56:51 11° W 19:56:51 11° W visible
30 Jan -2.8 17:29:14 10° SW 17:32:19 36° SSE 17:34:49 14° E visible
30 Jan -2.2 19:05:21 10° W 19:07:31 33° SW 19:07:31 33° SW visible
31 Jan -3.2 18:13:59 10° WSW 18:17:11 48° S 18:18:11 34° SE visible
31 Jan -0.6 19:50:23 10° W 19:50:54 13° W 19:50:54 13° W visible
01 Feb -3.0 17:22:38 10° WSW 17:25:49 45° S 17:28:51 11° E visible
01 Feb -2.6 18:58:56 10° W 19:01:34 37° SW 19:01:34 37° SW visible
